Weather in Novonikolayevka

Russia / Astrakhan Oblast     48°02′56″N   46°21′54″E
temp.,
°C
wind,
m/s
gust,
m/s
humid.,
%
clouds,
%
prec.,
mm/h
press.,
hPa
HPBL,
m
1 march, mon
mon101:00−2nw368494 0.0 1018377
04:00−2n238497 0.0 1020312
07:00−2n238697 0.0 1021201
10:00−2nne237592 0.0 1023396
13:000nnw346042 0.0 1024663
16:00+1nnw345730 0.0 1024895
19:00−2n356618 0.0 1025106
22:00−2nne12659 0.0 102625
2 march, tue
tue201:00−2wnw12630 0.0 102638
04:00−2w23650 0.0 102693
07:00−2sw36770 0.0 1025176
10:00+1w710694 0.0 1025829
13:00+3wsw8116088 0.0 10221111
16:00+4wsw9126284 0.0 10191353
19:00+2wsw71372100 0.0 1017656
22:00+2wsw71575100 0.0 1016776
3 march, wed
wed301:000wsw91497100 0.5 1013656
04:00+1wsw81397100 1.6 1011664
07:00+1w81397100 0.8 1009671
10:00+1wnw61097100 1.6 1009513
13:00+2nw6986100 0.3 1010758
16:00+3nw91167100 0.4 10121325
19:000nw5117798 0.1 1014508
22:00−2nw7127395 0.2 1018758
4 march, thu
thu401:00−3nw510780 0.0 1019774
04:00−3wnw510760 0.0 1021599
07:00−2w5107724 0.0 1022433
10:00+1w7106712 0.0 1023748
13:00+4w8115965 0.0 10221299
16:00+5wsw8115668 0.0 10201346
19:00+2sw511710 0.0 1020221
22:00+1sw612760 0.0 1020275
5 march, fri
fri501:00+1sw713760 0.0 1019326
04:00+1sw714780 0.0 1018368
07:000sw714805 0.0 1018382
10:00+4sw8126745 0.0 1018540
13:00+7sw8116156 0.0 1017967
16:00+8wsw8115828 0.0 10161176
19:00+5sw49680 0.0 1017166
22:00+3sw49800 0.0 1018164